Regional Weather Roundup
Issued by NWS

Home | Current Version | Previous Version | Text Only | Print | Product List | Glossary Off
Versions: 1 2 3 4 5 6 7 8 9 10 11 12 13 14 15 16 17 18 19 20 21 22 23 24 25 26 27 28 29 30 31 32 33 34 35 36 37 38 39 40 41 42 43 44 45 46 47 48 49 50

000
ASUS45 KABQ 310410
RWRNM
NEW MEXICO REGIONAL WEATHER ROUNDUP
NATIONAL WEATHER SERVICE ALBUQUERQUE NM
1000 PM MDT MON MAY 30 2016

NOTE: "FAIR" MEANS FEW OR NO CLOUDS BELOW 12,000 FEET AGL WITH NO
       SIGNIFICANT WEATHER OR OBSTRUCTIONS TO VISION.

      THIS PRODUCT IS RELEASED AS TWO VERSIONS.  ONE VERSION NEAR
      THE TOP OF THE HOUR CONTAINING PRELIMINARY DATA FROM ALBUQUERQUE
      AND OTHER STATIONS.  A FINAL VERSION WITH ADDITIONAL DATA IS
      ISSUED ABOUT 10 MINUTES AFTER THE HOUR.

NMZ501-503-504-510>518-310500-
NORTHWEST PLATEAU/NORTHCENTRAL MOUNTAINS

CITY           SKY/WX    TMP DP  RH WIND       PRES   REMARKS
FARMINGTON     FAIR      68  18  14 N8        29.97R
LOS ALAMOS     FAIR      64  19  17 SW7       30.11R
SANTA FE       FAIR      64  23  21 W7        30.03R
TAOS           FAIR      63  27  25 N21G31    30.11R
ANGEL FIRE     FAIR      45  26  47 CALM      30.17S

$$
NMZ402-403-502-505>509-310500-
WESTCENTRAL MOUNTAINS/SOUTHWEST MOUNTAINS

CITY           SKY/WX    TMP DP  RH WIND       PRES   REMARKS
GALLUP         FAIR      59  23  25 CALM      30.07R
GRANTS         MOCLDY    57  23  26 CALM      30.09R
SILVER CITY      N/A     64  41  42 E13       30.06S

$$
NMZ407-409-411-412-310500-
SOUTHERN DESERTS

CITY           SKY/WX    TMP DP  RH WIND       PRES   REMARKS
LORDSBURG      FAIR      64  50  59 SE6       29.95R
DEMING         FAIR      70  44  39 N9        29.97R
LAS CRUCES     FAIR      66  54  63 SE8G16    30.02R
HOLLOMAN AFB   LGT RAIN  72  54  53 S29G39    29.97R
ALAMOGORDO     FAIR      72  46  40 SW25G36   30.03R
T OR C         MOCLDY    69  45  41 CALM      29.98F

$$
NMZ519>523-310500-
CENTRAL VALLEYS/CENTRAL HIGHLANDS

CITY           SKY/WX    TMP DP  RH WIND       PRES   REMARKS
ALBUQUERQUE    MOCLDY    70  30  22 SE7       30.00R
DOUBLE EAGLE   CLEAR     63  32  31 SW8       30.03R
MORIARTY ARPT  FAIR      59  34  38 S5        30.07R
CLINES CORNERS FAIR      59  33  37 SW16      30.09R
BELEN          CLOUDY    73  31  21 SW10      30.00R
SOCORRO        FAIR      73  32  21 SW5       29.97R

$$
NMZ524>526-539-540-310500-
SOUTHCENTRAL MOUNTAINS

CITY           SKY/WX    TMP DP  RH WIND       PRES   REMARKS
RUIDOSO          N/A     54  43  66 NE3       30.17R

$$
NMZ527>531-310500-
NORTHEAST HIGHLANDS/NORTHEAST PLAINS

CITY           SKY/WX    TMP DP  RH WIND       PRES   REMARKS
LAS VEGAS      FAIR      57  26  30 S12       30.06R
RATON          FAIR      58  35  42 N9        30.04R
CLAYTON        FAIR      64  40  41 SW8       29.96S

$$
NMZ532>537-310500-
EASTCENTRAL PLAINS

CITY           SKY/WX    TMP DP  RH WIND       PRES   REMARKS
TUCUMCARI      LGT RAIN  72  39  30 SW17G24   29.90R
CANNON AFB     FAIR      70  47  44 SW15      29.96S
CLOVIS AIRPORT FAIR      70  45  40 S8        29.97F

$$
NMZ028-029-538-310500-
SOUTHEAST PLAINS

CITY           SKY/WX    TMP DP  RH WIND       PRES   REMARKS
ROSWELL        FAIR      64  50  60 CALM      29.99R
ARTESIA        FAIR      61  61 100 SW9       29.99R
CARLSBAD       FAIR      61  58  90 N7        29.96R
HOBBS          FAIR      64  55  72 SW7       29.94F


$$




USA.gov is the U.S. government's official web portal to all federal, state and local government web resources and services.